Location: Amsterdam
(30.7274°N, 84.4357°W)
Time: 06:45:08
(UTC+00:00)

Oscar 19 - Visible Passes

Search period start: 11 March 2026 00:00
Search period end: 21 March 2026 00:00
Orbit: 769 x 787 km, 98.9° (Epoch: 10 March)

Date Brightness Start Highest point End Pass type
(mag) Time Alt. Az. Time Alt. Az. Time Alt. Az.
11 Mar 12.2 00:27:04 10° SSW 00:31:52 39° W 00:36:39 10° NNW visible
13 Mar 13.6 01:01:49 10° SW 01:05:13 18° W 01:08:35 10° NW visible
14 Mar 12.2 00:27:15 10° SSW 00:32:02 39° W 00:36:50 10° NNW visible
16 Mar 13.6 01:01:59 10° SW 01:05:23 18° W 01:08:47 10° NW visible
17 Mar 12.2 00:27:26 10° SSW 00:32:13 40° W 00:37:00 10° NNW visible
19 Mar 13.5 01:02:08 10° SW 01:05:33 18° W 01:08:58 10° NW visible
20 Mar 12.2 00:27:36 10° S 00:32:23 40° W 00:37:11 10° NNW visible
